Home   Weather   Rae-Edzo   Past weeks

Flag for Canada Past Weather in Rae-Edzo, Northwest Territories, Canada — Yesterday and Last 2 Weeks

Now
40 °F

Quite cool.


Feels Like: 30 °F
Forecast: 34 / 40 °F
Wind: 24 mph from Northwest

Location: Lac La Martre

Current Time: Sep 27, 2016 at 11:15:48 PM

Latest Report: Sep 27, 2016 at 10:00 PM


Visibility: N/A

Pressure: 29.72 "Hg

Humidity: 85%

Dew Point: 36 °F

Location of Rae-EdzoLocation

Past Weather in Rae-Edzo — Graph

°F

Rae-Edzo Temperature Yesterday

Maximum temperature yesterday: 51 °F (at 12:00 AM)
Minimum temperature yesterday: 44 °F (at 11:00 PM)
Average temperature yesterday: 47 °F

High & Low Weather Summary for the Past Weeks

 TemperatureHumidityPressure
High69 °F (Sep 22, 4:00 PM)100% (Sep 14, 9:00 AM)30.20 "Hg (Sep 14, 9:00 AM)
Low25 °F (Sep 15, 3:00 AM)29% (Sep 22, 5:00 PM)29.34 "Hg (Sep 17, 8:00 AM)
Average45 °F80%29.73 "Hg
* Reported Sep 12 10:00 PM — Sep 27 10:00 PM, Rae-Edzo, Weather by CustomWeather, © 2016

Note: Actual official high and low records may vary slightly from our data, if they occured in-between our weather recording intervals... More about our weather records

Advertising

Rae-Edzo Weather History for the Previous 24 Hours

Scroll right to see more
 ConditionsComfort  
Time TempWeatherWind HumidityBarometerVisibility
10:00 PM
Tue, Sep 27
40 °FQuite cool.24 mph85%29.72 "HgN/A
9:00 PM41 °FQuite cool.22 mph87%29.67 "HgN/A
8:00 PM41 °FQuite cool.23 mph91%29.64 "HgN/A
7:00 PM40 °FQuite cool.20 mph89%29.60 "HgN/A
6:00 PM40 °FChilly.23 mph89%29.57 "HgN/A
5:00 PM39 °FChilly.20 mph90%29.53 "HgN/A
4:00 PM40 °FChilly.18 mph90%29.50 "HgN/A
3:00 PM39 °FChilly.16 mph91%29.47 "HgN/A
2:00 PM41 °FQuite cool.13 mph92%29.45 "HgN/A
1:00 PM42 °FQuite cool.14 mph87%29.42 "HgN/A
12:00 PM43 °FQuite cool.13 mph92%29.41 "HgN/A
11:00 AM44 °FQuite cool.6 mph94%29.40 "HgN/A
10:00 AM42 °FQuite cool.5 mph100%29.41 "HgN/A
9:00 AM43 °FQuite cool.5 mph96%29.41 "HgN/A
8:00 AM43 °FQuite cool.5 mph96%29.42 "HgN/A
7:00 AM43 °FQuite cool.3 mph96%29.43 "HgN/A
6:00 AM43 °FQuite cool.5 mph96%29.46 "HgN/A
5:00 AM42 °FQuite cool.6 mph97%29.48 "HgN/A
4:00 AM43 °FQuite cool.5 mph96%29.50 "HgN/A
3:00 AM43 °FQuite cool.7 mph95%29.52 "HgN/A
2:00 AM43 °FQuite cool.8 mph95%29.53 "HgN/A
1:00 AM43 °FQuite cool.9 mph94%29.56 "HgN/A
12:00 AM43 °FQuite cool.8 mph94%29.59 "HgN/A
11:00 PM
Mon, Sep 26
44 °FQuite cool.9 mph93%29.61 "HgN/A
Weather by CustomWeather, © 2016

See weather overviewHow to use our weather pages